Regional Weather Roundup
Issued by NWS

Home | Current Version | Previous Version | Text Only | Print | Product List | Glossary Off
Versions: 1 2 3 4 5 6 7 8 9 10 11 12 13 14 15 16 17 18 19 20 21 22 23 24 25 26 27

000
ASUS45 KBOU 190407
RWRCO

WEATHER ROUNDUP FOR COLORADO
NATIONAL WEATHER SERVICE DENVER/BOULDER CO
900 PM MST WED JAN 18 2017

NOTE: "FAIR" INDICATES FEW OR NO CLOUDS BELOW 12000 FEET WITH NO
SIGNIFICANT WEATHER AND/OR OBSTRUCTIONS TO VISIBILITY.

COZ001>005-013-030-031-190500-
...NORTHWEST COLORADO...

CITY           SKY/WX    TMP DP  RH WIND       PRES   REMARKS
CRAIG          MOCLDY     7   3  84 CALM      30.00R
HAYDEN         FAIR      12   9  85 CALM      29.97R
MEEKER         FAIR      15  12  88 NE3       29.99R
MOUNT WERNER   NOT AVBL
STEAMBOAT SPGS FAIR      13  11  90 SE3       29.97R
WALDEN           N/A      1  -4  78 SE3       29.93R
$$

COZ006>008-011-190500-
...WEST CENTRAL VALLEYS...

CITY           SKY/WX    TMP DP  RH WIND       PRES   REMARKS
GRAND JUNCTION FAIR      30  28  92 CALM      29.99F
MONTROSE       FAIR      30  25  81 SE6       30.02R WCI  24
EAGLE          CLEAR     18  16  93 E5        30.00R WCI  11
RIFLE          FAIR      28  24  85 S3        30.00R
DELTA          FAIR      35  29  79 NE7       30.00S WCI  29
NUCLA          FAIR      32  27  80 E8        30.04S WCI  25
$$

COZ017>023-064>068-190500-
...SOUTHWEST COLORADO...

CITY           SKY/WX    TMP DP  RH WIND       PRES   REMARKS
DURANGO        FAIR      30  24  78 CALM      30.00S
CORTEZ         FAIR      27  25  92 NE7       30.02S WCI  19
PAGOSA SPRINGS CLOUDY    32  31  94 CALM      30.00S
TELLURIDE      FAIR      22  18  83 SE7       30.01  WCI  14
WOLF CREEK PAS CLOUDY    14  14 100 SW14G20   30.01F WCI  -1
$$

COZ009-010-012-014-032>034-037-058>063-190500-
...CENTRAL COLORADO...

CITY           SKY/WX    TMP DP  RH WIND       PRES   REMARKS
ASPEN          FAIR      15   9  76 CALM      29.95S
BUENA VISTA    FAIR       7   3  82 W5        29.89F WCI  -2
COPPER MTN     FAIR      23   9  54 W8        29.95S WCI  14
BERTHOUD PASS  NOT AVBL
COTTONWOOD PAS FAIR      32  14  47 NW9       29.88F WCI  24
GUNNISON       FAIR       9   5  84 N3        30.03S
KREMMLING      FAIR      12   9  85 CALM      29.99S
LEADVILLE      FAIR      15   8  73 N6        29.91S WCI   6
MONARCH PASS   FOG       12  10  92 MISG      30.04F VSB 3/4
SALIDA         FAIR      30  19  65 W8        29.95S WCI  22
SUNLIGHT       FAIR      16  14  93 SW14      30.00S WCI   1
WILKERSON PASS MOCLDY    28   3  34 NW9G16    29.90F WCI  20
$$

COZ069>075-190500-
...SAN LUIS VALLEY/SANGRE DE CRISTO MOUNTAINS...

CITY           SKY/WX    TMP DP  RH WIND       PRES   REMARKS
ALAMOSA        CLOUDY    25  22  88 CALM      29.97F
LA VETA PASS   NOT AVBL
SAGUACHE       FAIR      12   9  85 NW7       29.98S WCI   2
$$

COZ035-036-038>040-190500-
...NORTHERN COLORADO FRONT RANGE...

CITY           SKY/WX    TMP DP  RH WIND       PRES   REMARKS
DENVER INTL AP FAIR      33  18  53 SW9       29.71F WCI  25
DMNS CITY PARK   N/A     37  15  40 SE8G16    29.71S
AURORA         PTCLDY    32  16  52 S9        29.71F WCI  24
FRONT RANGE AP PTCLDY    28  21  74 S8        29.71F WCI  20
ERIE MUNI ARPT FAIR      26  20  77 SW3       29.70F
BOULDER MUN AP FAIR      36  19  51 CALM      29.70F
CENTENNIAL     FAIR      27  14  58 S6        29.71F WCI  20
BROOMFIELD     CLEAR     41  12  30 CALM      29.70F
FORT COLLINS   FAIR      34  21  60 N6        29.72S WCI  29
LONGMONT       FAIR      28  19  69 CALM      29.73S
$$

COZ041-046-047-076>085-087-088-190500-
...PIKES PEAK/PALMER DIVIDE AND SOUTHERN FOOTHILLS...

CITY           SKY/WX    TMP DP  RH WIND       PRES   REMARKS
COLO. SPRINGS  FAIR      29  20  69 N7        29.74F WCI  22
A. F. ACADEMY  FAIR      26  16  66 N8        29.73F WCI  18
SCHRIEVER AFB  NOT AVBL
ELLICOTT       FAIR     N/A N/A N/A E3        29.72F
FALCON         FAIR      36   6  28 NW9       29.74F
FORT CARSON    CLEAR     34  21  60 SW3       29.74S
LIMON          FAIR      19  16  88 N5        29.71F WCI  12
MONUMENT HILL  FAIR      28  12  50 W6        29.75F WCI  22
TRINIDAD       FAIR      28  18  66 NW9       29.74F WCI  19
$$

COZ042>045-048>051-090-091-190500-
...NORTHEAST COLORADO...

CITY           SKY/WX    TMP DP  RH WIND       PRES   REMARKS
GREELEY ARPT   FAIR      26  24  92 NW5       29.72F WCI  20
AKRON          FAIR      32  18  56 SW8       29.70F WCI  25
BURLINGTON     FAIR      32  29  88 S9        29.73F WCI  24
WRAY           NOT AVBL
STERLING       FAIR      25  23  93 CALM      29.70F
HOLYOKE        FAIR      25  21  86 W8        29.71F WCI  16
FORT MORGAN    FAIR      35  19  50 CALM      29.70F
$$

COZ086-089-092>099-190500-
...SOUTHEAST COLORADO...

CITY           SKY/WX    TMP DP  RH WIND       PRES   REMARKS
PUEBLO         FAIR      31  27  85 CALM      29.73F
LA JUNTA       FAIR      28  23  81 CALM      29.72F
LAMAR          FAIR      24  21  88 CALM      29.72F
SPRINGFIELD      N/A     27  26  96 NW7       29.73F WCI  19
$$




USA.gov is the U.S. government's official web portal to all federal, state and local government web resources and services.